Location: Nairn
(57.5833°N, 3.8667°W)
Time: 03:36:55
(UTC+00:00)

Lacrosse 4 Rocket - Pass Details

Date: 07 August 2020
Orbit: 544 x 615 km, 68.0° (Epoch: 27 September)

Event Time Altitude Azimuth Distance (km) Brightness Sun altitude
Exits shadow 00:12:41 23° 138° (SE) 1,247 2.7 -16.1°
Maximum altitude 00:13:39 25° 116° (ESE) 1,174 2.7 -16.1°
Drops below altitude 10° 00:17:07 10° 60° (ENE) 1,875 4.4 -16.1°
Sets 00:19:35 0° 48° (NE) 2,764 5.5 -16.1°
